TimeCDT,TemperatureF,Dew PointF,Humidity,Sea Level PressureIn,VisibilityMPH,Wind Direction,Wind SpeedMPH,Gust SpeedMPH,PrecipitationIn,Events,Conditions,WindDirDegrees,DateUTC
12:09 AM,64.4,60.8,88,29.73,0.2,Calm,Calm,-,N/A,Fog,Fog,0,2013-09-10 05:09:00
12:40 AM,64.4,60.8,88,29.74,0.5,South,3.5,-,0.01,Fog,Fog,190,2013-09-10 05:40:00
12:55 AM,64.0,61.0,90,29.74,0.5,South,4.6,-,0.01,Fog,Fog,180,2013-09-10 05:55:00
1:55 AM,64.0,61.0,90,29.74,0.5,South,4.6,-,N/A,Fog,Fog,180,2013-09-10 06:55:00
2:09 AM,64.4,60.8,88,29.74,0.2,SSE,4.6,-,N/A,Fog,Fog,160,2013-09-10 07:09:00
2:40 AM,64.4,60.8,88,29.75,0.5,SW,3.5,-,N/A,Fog,Fog,220,2013-09-10 07:40:00
2:55 AM,64.0,62.1,93,29.75,0.5,SW,3.5,-,N/A,Fog,Fog,220,2013-09-10 07:55:00
3:10 AM,64.4,62.6,94,29.75,0.2,WSW,3.5,-,N/A,Fog,Fog,250,2013-09-10 08:10:00
3:38 AM,64.4,62.6,94,29.76,0.2,WSW,6.9,-,N/A,Fog,Fog,250,2013-09-10 08:38:00
3:48 AM,64.4,62.6,94,29.76,0.5,West,5.8,-,N/A,Fog,Fog,260,2013-09-10 08:48:00
3:55 AM,66.0,63.0,90,29.77,1.0,WSW,8.1,-,N/A,,Overcast,250,2013-09-10 08:55:00
4:20 AM,66.2,64.4,94,29.77,2.0,WSW,8.1,-,N/A,,Overcast,250,2013-09-10 09:20:00
4:38 AM,66.2,64.4,94,29.77,4.0,West,6.9,-,N/A,,Overcast,270,2013-09-10 09:38:00
4:55 AM,66.9,64.0,90,29.77,6.0,WNW,8.1,-,N/A,,Scattered Clouds,290,2013-09-10 09:55:00
5:19 AM,66.2,64.4,94,29.77,10.0,WNW,6.9,-,0.00,,Mostly Cloudy,290,2013-09-10 10:19:00
5:27 AM,66.2,64.4,94,29.78,5.0,WNW,8.1,-,0.00,,Light Drizzle,300,2013-09-10 10:27:00
5:55 AM,66.9,64.0,90,29.79,4.0,WNW,12.7,20.7,0.00,,Light Drizzle,300,2013-09-10 10:55:00
6:30 AM,66.2,62.6,88,29.80,10.0,West,9.2,-,0.00,,Mostly Cloudy,280,2013-09-10 11:30:00
6:55 AM,66.9,63.0,87,29.81,10.0,WNW,10.4,-,0.00,,Mostly Cloudy,300,2013-09-10 11:55:00
7:03 AM,66.2,62.6,88,29.81,10.0,WNW,11.5,-,N/A,,Overcast,300,2013-09-10 12:03:00
7:55 AM,66.9,63.0,87,29.82,10.0,WNW,12.7,-,N/A,,Overcast,290,2013-09-10 12:55:00
8:55 AM,66.0,62.1,87,29.83,10.0,West,9.2,-,N/A,,Overcast,280,2013-09-10 13:55:00
9:21 AM,66.2,62.6,88,29.84,10.0,West,12.7,-,N/A,,Overcast,270,2013-09-10 14:21:00
9:40 AM,68.0,60.8,78,29.85,10.0,WNW,13.8,18.4,N/A,,Scattered Clouds,290,2013-09-10 14:40:00
9:55 AM,68.0,61.0,78,29.85,10.0,West,12.7,-,N/A,,Scattered Clouds,280,2013-09-10 14:55:00
10:35 AM,68.0,60.8,78,29.87,10.0,West,12.7,-,N/A,,Mostly Cloudy,270,2013-09-10 15:35:00
10:55 AM,69.1,61.0,75,29.86,10.0,WNW,10.4,-,N/A,,Mostly Cloudy,290,2013-09-10 15:55:00
11:14 AM,69.8,60.8,73,29.86,10.0,West,13.8,-,N/A,,Scattered Clouds,270,2013-09-10 16:14:00
11:55 AM,71.1,61.0,70,29.87,10.0,West,13.8,-,N/A,,Scattered Clouds,280,2013-09-10 16:55:00
12:23 PM,73.4,60.8,65,29.89,10.0,West,12.7,-,N/A,,Mostly Cloudy,260,2013-09-10 17:23:00
12:55 PM,73.9,61.0,64,29.87,10.0,West,13.8,-,N/A,,Mostly Cloudy,270,2013-09-10 17:55:00
1:55 PM,75.0,61.0,62,29.87,10.0,West,12.7,-,N/A,,Scattered Clouds,260,2013-09-10 18:55:00
2:55 PM,75.0,61.0,62,29.86,10.0,West,12.7,-,N/A,,Mostly Cloudy,260,2013-09-10 19:55:00
3:27 PM,75.2,62.6,65,29.87,10.0,West,10.4,-,N/A,,Mostly Cloudy,270,2013-09-10 20:27:00
3:37 PM,75.2,60.8,61,29.88,10.0,West,13.8,20.7,N/A,,Scattered Clouds,260,2013-09-10 20:37:00
3:55 PM,78.1,61.0,56,29.86,10.0,WSW,16.1,20.7,N/A,,Partly Cloudy,240,2013-09-10 20:55:00
4:55 PM,77.0,60.1,56,29.85,10.0,WSW,10.4,-,N/A,,Scattered Clouds,250,2013-09-10 21:55:00
5:55 PM,70.0,62.1,76,29.87,10.0,NW,9.2,21.9,0.00,Rain,Light Rain,320,2013-09-10 22:55:00
6:55 PM,69.1,63.0,81,29.89,10.0,WNW,3.5,-,0.00,,Partly Cloudy,300,2013-09-10 23:55:00
7:55 PM,66.9,62.1,84,29.90,10.0,WNW,4.6,-,N/A,,Partly Cloudy,290,2013-09-11 00:55:00
8:55 PM,66.9,62.1,84,29.91,10.0,WNW,6.9,-,N/A,,Partly Cloudy,290,2013-09-11 01:55:00
9:55 PM,66.0,60.1,81,29.93,10.0,NW,8.1,-,N/A,,Clear,310,2013-09-11 02:55:00
10:55 PM,64.0,59.0,84,29.94,10.0,WNW,6.9,-,N/A,,Clear,290,2013-09-11 03:55:00
11:55 PM,63.0,57.9,84,29.94,10.0,WNW,5.8,-,N/A,,Clear,290,2013-09-11 04:55:00